Time,TemperatureF,DewpointF,PressureIn,WindDirection,WindDirectionDegrees,WindSpeedMPH,WindSpeedGustMPH,Humidity,HourlyPrecipIn,Conditions,Clouds,dailyrainin,SoftwareType,DateUTC
2013-08-05 00:01:00,59.0,55.1,29.95,NW,316,1.3,3.5,87,0.00,SCT,,0.00,WeatherDisplay:10.37,2013-08-05 04:01:00,
2013-08-05 00:02:00,59.0,55.1,29.95,WNW,299,0.5,2.3,87,0.00,BKN,,0.00,WeatherDisplay:10.37,2013-08-05 04:02:00,
2013-08-05 00:07:00,59.0,55.1,29.95,WNW,298,1.4,3.5,87,0.00,BKN,,0.00,WeatherDisplay:10.37,2013-08-05 04:07:00,
2013-08-05 00:12:00,59.0,55.4,29.95,West,280,0.9,3.5,88,0.00,BKN,,0.00,WeatherDisplay:10.37,2013-08-05 04:12:00,
2013-08-05 00:18:00,59.0,55.4,29.95,West,275,3.4,5.8,88,0.00,BKN,,0.00,WeatherDisplay:10.37,2013-08-05 04:18:00,
2013-08-05 00:22:00,59.0,55.4,29.95,WNW,288,1.9,3.5,88,0.00,BKN,,0.00,WeatherDisplay:10.37,2013-08-05 04:22:00,
2013-08-05 00:23:00,59.0,55.4,29.95,WNW,288,1.9,3.5,88,0.00,BKN,,0.00,WeatherDisplay:10.37,2013-08-05 04:23:00,
2013-08-05 00:28:00,59.1,55.5,29.95,WNW,300,1.0,3.5,88,0.00,BKN,,0.00,WeatherDisplay:10.37,2013-08-05 04:28:00,
2013-08-05 00:33:00,59.3,55.7,29.95,WNW,283,1.7,4.6,88,0.00,BKN,,0.00,WeatherDisplay:10.37,2013-08-05 04:33:00,
2013-08-05 00:38:00,59.3,55.7,29.94,NW,311,0.0,1.2,88,0.00,BKN,,0.00,WeatherDisplay:10.37,2013-08-05 04:38:00,
2013-08-05 00:43:00,59.1,55.5,29.94,WNW,285,0.2,2.0,88,0.00,BKN,,0.00,WeatherDisplay:10.37,2013-08-05 04:43:00,
2013-08-05 00:48:00,59.1,55.5,29.94,WNW,286,0.2,1.0,88,0.00,BKN,,0.00,WeatherDisplay:10.37,2013-08-05 04:48:00,
2013-08-05 00:53:00,59.1,55.5,29.94,NNW,331,0.2,1.2,88,0.00,BKN,,0.00,WeatherDisplay:10.37,2013-08-05 04:53:00,
2013-08-05 00:58:00,59.1,55.5,29.95,NNW,331,0.1,1.2,88,0.00,BKN,,0.00,WeatherDisplay:10.37,2013-08-05 04:58:00,
2013-08-05 01:03:00,59.3,55.7,29.95,NNW,331,0.2,2.3,88,0.00,BKN,,0.00,WeatherDisplay:10.37,2013-08-05 05:03:00,
2013-08-05 01:08:00,59.4,55.8,29.95,NW,319,1.1,3.5,88,0.00,BKN,,0.00,WeatherDisplay:10.37,2013-08-05 05:08:00,
2013-08-05 01:14:00,59.4,56.2,29.95,NNW,334,0.3,2.3,89,0.00,BKN,,0.00,WeatherDisplay:10.37,2013-08-05 05:14:00,
2013-08-05 01:19:00,59.4,56.2,29.95,NW,324,0.0,0.0,89,0.00,BKN,,0.00,WeatherDisplay:10.37,2013-08-05 05:19:00,
2013-08-05 01:24:00,59.4,56.2,29.95,NNW,338,0.1,3.0,89,0.00,BKN,,0.00,WeatherDisplay:10.37,2013-08-05 05:24:00,
2013-08-05 01:29:00,59.4,56.2,29.95,NNW,339,1.1,3.5,89,0.00,BKN,,0.00,WeatherDisplay:10.37,2013-08-05 05:29:00,
2013-08-05 01:34:00,59.4,56.2,29.95,NNW,328,0.6,3.5,89,0.00,BKN,,0.00,WeatherDisplay:10.37,2013-08-05 05:34:00,
2013-08-05 01:39:00,59.2,56.0,29.95,NNW,328,0.0,0.0,89,0.00,BKN,,0.00,WeatherDisplay:10.37,2013-08-05 05:39:00,
2013-08-05 01:44:00,59.0,55.8,29.95,NNW,328,0.6,2.3,89,0.00,BKN,,0.00,WeatherDisplay:10.37,2013-08-05 05:44:00,
2013-08-05 01:49:00,59.0,55.8,29.95,NNW,336,0.7,2.3,89,0.00,BKN,,0.00,WeatherDisplay:10.37,2013-08-05 05:49:00,
2013-08-05 01:54:00,59.0,55.8,29.95,NNW,343,0.8,3.5,89,0.00,BKN,,0.00,WeatherDisplay:10.37,2013-08-05 05:54:00,
2013-08-05 01:59:00,59.0,55.8,29.95,NNW,346,0.8,2.3,89,0.00,BKN,,0.00,WeatherDisplay:10.37,2013-08-05 05:59:00,
2013-08-05 02:04:00,58.8,55.6,29.95,NNW,332,1.2,3.5,89,0.00,BKN,,0.00,WeatherDisplay:10.37,2013-08-05 06:04:00,
2013-08-05 02:09:00,58.5,55.3,29.95,WNW,300,1.6,3.5,89,0.00,BKN,,0.00,WeatherDisplay:10.37,2013-08-05 06:09:00,
2013-08-05 02:15:00,58.1,55.2,29.95,WNW,288,3.5,5.8,90,0.00,BKN,,0.00,WeatherDisplay:10.37,2013-08-05 06:15:00,
2013-08-05 02:20:00,57.9,55.0,29.95,NW,311,1.9,5.8,90,0.00,BKN,,0.00,WeatherDisplay:10.37,2013-08-05 06:20:00,
2013-08-05 02:24:00,57.6,55.0,29.95,WNW,302,0.8,3.5,91,0.00,BKN,,0.00,WeatherDisplay:10.37,2013-08-05 06:24:00,
2013-08-05 02:30:00,57.5,54.9,29.95,NNW,328,2.6,4.6,91,0.00,BKN,,0.00,WeatherDisplay:10.37,2013-08-05 06:30:00,
2013-08-05 02:35:00,57.2,54.9,29.95,NW,311,1.1,4.6,92,0.00,BKN,,0.00,WeatherDisplay:10.37,2013-08-05 06:35:00,
2013-08-05 02:40:00,57.0,54.7,29.95,WNW,299,1.9,4.0,92,0.00,BKN,,0.00,WeatherDisplay:10.37,2013-08-05 06:40:00,
2013-08-05 02:45:00,56.9,54.6,29.95,NW,317,2.1,3.5,92,0.00,BKN,,0.00,WeatherDisplay:10.37,2013-08-05 06:45:00,
2013-08-05 02:51:00,56.7,54.7,29.95,NNW,332,2.6,3.5,93,0.00,BKN,,0.00,WeatherDisplay:10.37,2013-08-05 06:51:00,
2013-08-05 02:56:00,56.6,54.6,29.96,WNW,285,2.3,4.0,93,0.00,BKN,,0.00,WeatherDisplay:10.37,2013-08-05 06:56:00,
2013-08-05 03:01:00,56.5,54.5,29.96,WNW,284,2.1,3.5,93,0.00,BKN,,0.00,WeatherDisplay:10.37,2013-08-05 07:01:00,
2013-08-05 03:05:00,56.4,54.4,29.96,WNW,298,2.8,4.0,93,0.00,FEW,,0.00,WeatherDisplay:10.37,2013-08-05 07:05:00,
2013-08-05 03:11:00,56.3,54.6,29.96,WNW,283,0.0,0.0,94,0.00,FEW,,0.00,WeatherDisplay:10.37,2013-08-05 07:11:00,
2013-08-05 03:16:00,56.3,54.6,29.96,West,260,2.7,6.9,94,0.00,FEW,,0.00,WeatherDisplay:10.37,2013-08-05 07:16:00,
2013-08-05 03:21:00,56.2,54.5,29.96,West,260,1.8,3.5,94,0.00,FEW,,0.00,WeatherDisplay:10.37,2013-08-05 07:21:00,
2013-08-05 03:26:00,56.0,54.3,29.96,WNW,283,1.2,6.0,94,0.00,FEW,,0.00,WeatherDisplay:10.37,2013-08-05 07:26:00,
2013-08-05 03:31:00,55.9,54.2,29.96,WNW,298,3.3,4.6,94,0.00,FEW,,0.00,WeatherDisplay:10.37,2013-08-05 07:31:00,
2013-08-05 03:36:00,55.8,54.1,29.96,West,281,1.6,3.5,94,0.00,FEW,,0.00,WeatherDisplay:10.37,2013-08-05 07:36:00,
2013-08-05 03:41:00,55.7,54.0,29.96,WNW,288,0.8,3.0,94,0.00,FEW,,0.00,WeatherDisplay:10.37,2013-08-05 07:41:00,
2013-08-05 03:46:00,55.5,53.8,29.97,WNW,288,1.4,3.5,94,0.00,FEW,,0.00,WeatherDisplay:10.37,2013-08-05 07:46:00,
2013-08-05 03:51:00,55.3,53.6,29.97,WNW,288,1.7,3.5,94,0.00,FEW,,0.00,WeatherDisplay:10.37,2013-08-05 07:51:00,
2013-08-05 03:56:00,55.2,53.5,29.96,NW,318,0.4,2.3,94,0.00,FEW,,0.00,WeatherDisplay:10.37,2013-08-05 07:56:00,
2013-08-05 04:02:00,55.1,53.4,29.97,NNW,329,0.2,3.0,94,0.00,CLR,,0.00,WeatherDisplay:10.37,2013-08-05 08:02:00,
2013-08-05 04:07:00,54.9,53.2,29.97,WNW,301,3.3,4.6,94,0.00,CLR,,0.00,WeatherDisplay:10.37,2013-08-05 08:07:00,
2013-08-05 04:12:00,54.8,53.1,29.97,WNW,296,2.7,4.6,94,0.00,CLR,,0.00,WeatherDisplay:10.37,2013-08-05 08:12:00,
2013-08-05 04:17:00,54.8,53.4,29.97,West,267,1.7,5.8,95,0.00,CLR,,0.00,WeatherDisplay:10.37,2013-08-05 08:17:00,
2013-08-05 04:22:00,54.7,53.3,29.97,NW,304,0.9,5.8,95,0.00,CLR,,0.00,WeatherDisplay:10.37,2013-08-05 08:22:00,
2013-08-05 04:27:00,54.7,53.3,29.97,WNW,297,3.1,5.8,95,0.00,CLR,,0.00,WeatherDisplay:10.37,2013-08-05 08:27:00,
2013-08-05 04:32:00,54.6,53.2,29.97,NW,307,2.7,9.2,95,0.00,CLR,,0.00,WeatherDisplay:10.37,2013-08-05 08:32:00,
2013-08-05 04:37:00,54.4,53.0,29.97,WNW,286,2.8,10.4,95,0.00,CLR,,0.00,WeatherDisplay:10.37,2013-08-05 08:37:00,
2013-08-05 04:42:00,54.4,53.0,29.97,WNW,287,4.8,8.1,95,0.00,CLR,,0.00,WeatherDisplay:10.37,2013-08-05 08:42:00,
2013-08-05 04:47:00,54.3,52.9,29.98,NW,305,2.6,5.8,95,0.00,CLR,,0.00,WeatherDisplay:10.37,2013-08-05 08:47:00,
2013-08-05 04:53:00,54.2,52.8,29.98,WNW,300,1.1,5.8,95,0.00,CLR,,0.00,WeatherDisplay:10.37,2013-08-05 08:53:00,
2013-08-05 04:58:00,54.1,52.7,29.98,West,259,4.5,7.0,95,0.00,CLR,,0.00,WeatherDisplay:10.37,2013-08-05 08:58:00,
2013-08-05 05:03:00,54.0,52.6,29.99,NW,309,2.7,6.9,95,0.00,CLR,,0.00,WeatherDisplay:10.37,2013-08-05 09:03:00,
2013-08-05 05:08:00,53.9,52.8,29.99,WNW,293,3.9,10.4,96,0.00,CLR,,0.00,WeatherDisplay:10.37,2013-08-05 09:08:00,
2013-08-05 05:13:00,53.8,52.4,29.99,NW,311,3.9,6.9,95,0.00,CLR,,0.00,WeatherDisplay:10.37,2013-08-05 09:13:00,
2013-08-05 05:18:00,53.7,52.3,29.99,WNW,286,2.4,5.8,95,0.00,CLR,,0.00,WeatherDisplay:10.37,2013-08-05 09:18:00,
2013-08-05 05:23:00,53.6,52.2,29.99,WNW,302,3.1,6.0,95,0.00,CLR,,0.00,WeatherDisplay:10.37,2013-08-05 09:23:00,
2013-08-05 05:29:00,53.5,52.1,29.99,WNW,298,3.3,9.2,95,0.00,CLR,,0.00,WeatherDisplay:10.37,2013-08-05 09:29:00,
2013-08-05 05:34:00,53.4,52.0,29.99,NW,310,2.9,5.8,95,0.00,CLR,,0.00,WeatherDisplay:10.37,2013-08-05 09:34:00,
2013-08-05 05:39:00,53.3,51.9,29.99,West,273,5.5,9.0,95,0.00,CLR,,0.00,WeatherDisplay:10.37,2013-08-05 09:39:00,
2013-08-05 05:44:00,53.2,51.8,30.00,WNW,295,3.7,6.9,95,0.00,CLR,,0.00,WeatherDisplay:10.37,2013-08-05 09:44:00,
2013-08-05 05:49:00,53.2,51.8,30.00,West,275,2.3,4.0,95,0.00,CLR,,0.00,WeatherDisplay:10.37,2013-08-05 09:49:00,
2013-08-05 05:54:00,53.1,51.7,30.00,West,270,5.4,9.2,95,0.00,CLR,,0.00,WeatherDisplay:10.37,2013-08-05 09:54:00,
2013-08-05 05:59:00,53.0,51.6,30.01,WNW,294,1.8,3.5,95,0.00,CLR,,0.00,WeatherDisplay:10.37,2013-08-05 09:59:00,
2013-08-05 06:04:00,52.9,51.5,30.01,West,274,2.0,3.5,95,0.00,FEW,,0.00,WeatherDisplay:10.37,2013-08-05 10:04:00,
2013-08-05 06:09:00,52.8,51.4,30.01,NNW,333,1.0,3.0,95,0.00,FEW,,0.00,WeatherDisplay:10.37,2013-08-05 10:09:00,
2013-08-05 06:14:00,52.7,51.3,30.01,NW,305,2.5,3.5,95,0.00,FEW,,0.00,WeatherDisplay:10.37,2013-08-05 10:14:00,
2013-08-05 06:20:00,52.6,51.2,30.01,West,276,2.2,5.8,95,0.00,FEW,,0.00,WeatherDisplay:10.37,2013-08-05 10:20:00,
2013-08-05 06:25:00,52.5,51.1,30.01,NNW,327,0.5,4.6,95,0.00,FEW,,0.00,WeatherDisplay:10.37,2013-08-05 10:25:00,
2013-08-05 06:30:00,52.6,51.2,30.02,NNW,341,0.0,0.0,95,0.00,FEW,,0.00,WeatherDisplay:10.37,2013-08-05 10:30:00,
2013-08-05 06:35:00,52.8,51.7,30.02,NNE,24,0.0,0.0,96,0.00,FEW,,0.00,WeatherDisplay:10.37,2013-08-05 10:35:00,
2013-08-05 06:40:00,52.9,51.8,30.02,NE,55,0.5,3.5,96,0.00,FEW,,0.00,WeatherDisplay:10.37,2013-08-05 10:40:00,
2013-08-05 06:45:00,53.0,51.6,30.02,NE,55,0.0,0.0,95,0.00,FEW,,0.00,WeatherDisplay:10.37,2013-08-05 10:45:00,
2013-08-05 06:50:00,53.1,51.7,30.02,NE,49,0.7,2.3,95,0.00,FEW,,0.00,WeatherDisplay:10.37,2013-08-05 10:50:00,
2013-08-05 06:55:00,53.1,51.7,30.02,North,355,1.6,3.5,95,0.00,FEW,,0.00,WeatherDisplay:10.37,2013-08-05 10:55:00,
2013-08-05 07:00:00,53.0,51.6,30.02,NNW,346,0.1,3.5,95,0.00,FEW,,0.00,WeatherDisplay:10.37,2013-08-05 11:00:00,
2013-08-05 07:06:00,53.0,51.6,30.03,North,5,1.2,4.6,95,0.00,SCT,,0.00,WeatherDisplay:10.37,2013-08-05 11:06:00,
2013-08-05 07:11:00,53.0,51.6,30.03,North,355,2.2,8.1,95,0.00,SCT,,0.00,WeatherDisplay:10.37,2013-08-05 11:11:00,
2013-08-05 07:16:00,53.0,51.6,30.03,NNW,340,1.3,4.6,95,0.00,SCT,,0.00,WeatherDisplay:10.37,2013-08-05 11:16:00,
2013-08-05 07:21:00,53.0,51.6,30.03,North,5,0.7,3.5,95,0.00,SCT,,0.00,WeatherDisplay:10.37,2013-08-05 11:21:00,
2013-08-05 07:27:00,53.1,51.7,30.03,North,5,0.1,1.2,95,0.00,SCT,,0.00,WeatherDisplay:10.37,2013-08-05 11:27:00,
2013-08-05 07:32:00,53.2,51.8,30.03,NNW,344,1.9,4.0,95,0.00,SCT,,0.00,WeatherDisplay:10.37,2013-08-05 11:32:00,
2013-08-05 07:37:00,53.4,52.0,30.04,North,5,0.0,0.0,95,0.00,SCT,,0.00,WeatherDisplay:10.37,2013-08-05 11:37:00,
2013-08-05 07:43:00,53.9,52.5,30.04,North,5,0.0,4.6,95,0.00,SCT,,0.00,WeatherDisplay:10.37,2013-08-05 11:43:00,
2013-08-05 07:48:00,54.5,53.1,30.03,North,5,0.5,4.6,95,0.00,SCT,,0.00,WeatherDisplay:10.37,2013-08-05 11:48:00,
2013-08-05 07:53:00,55.3,53.9,30.03,NW,308,2.1,5.0,95,0.00,SCT,,0.00,WeatherDisplay:10.37,2013-08-05 11:53:00,
2013-08-05 07:58:00,56.0,54.3,30.04,NW,319,2.7,9.2,94,0.00,SCT,,0.00,WeatherDisplay:10.37,2013-08-05 11:58:00,
2013-08-05 08:03:00,56.7,54.7,30.04,North,5,1.7,3.5,93,0.00,CLR,,0.00,WeatherDisplay:10.37,2013-08-05 12:03:00,
2013-08-05 08:08:00,57.3,54.7,30.04,West,273,5.2,10.4,91,0.00,CLR,,0.00,WeatherDisplay:10.37,2013-08-05 12:08:00,
2013-08-05 08:14:00,58.0,54.8,30.04,NW,321,2.0,4.6,89,0.00,CLR,,0.00,WeatherDisplay:10.37,2013-08-05 12:14:00,
2013-08-05 08:19:00,58.8,54.9,30.04,NW,315,0.0,1.2,87,0.00,CLR,,0.00,WeatherDisplay:10.37,2013-08-05 12:19:00,
2013-08-05 08:24:00,59.4,55.5,30.04,West,273,4.1,6.9,87,0.00,CLR,,0.00,WeatherDisplay:10.37,2013-08-05 12:24:00,
2013-08-05 08:29:00,60.2,56.0,30.04,West,272,2.4,4.0,86,0.00,CLR,,0.00,WeatherDisplay:10.37,2013-08-05 12:29:00,
2013-08-05 08:35:00,60.7,56.2,30.04,WNW,296,5.4,9.2,85,0.00,CLR,,0.00,WeatherDisplay:10.37,2013-08-05 12:35:00,
2013-08-05 08:40:00,61.0,55.5,30.04,NNW,335,0.8,4.6,82,0.00,CLR,,0.00,WeatherDisplay:10.37,2013-08-05 12:40:00,
2013-08-05 08:45:00,61.6,56.0,30.04,North,360,2.5,8.0,82,0.00,CLR,,0.00,WeatherDisplay:10.37,2013-08-05 12:45:00,
2013-08-05 08:50:00,62.3,56.0,30.04,NNW,330,3.6,5.8,80,0.00,CLR,,0.00,WeatherDisplay:10.37,2013-08-05 12:50:00,
2013-08-05 08:56:00,62.8,56.2,30.04,NNW,346,3.5,9.2,79,0.00,CLR,,0.00,WeatherDisplay:10.37,2013-08-05 12:56:00,
2013-08-05 09:01:00,63.1,55.8,30.04,North,355,4.3,11.5,77,0.00,CLR,,0.00,WeatherDisplay:10.37,2013-08-05 13:01:00,
2013-08-05 09:07:00,63.5,56.5,30.04,West,279,1.8,3.5,78,0.00,CLR,,0.00,WeatherDisplay:10.37,2013-08-05 13:07:00,
2013-08-05 09:12:00,63.5,55.1,30.04,WNW,299,4.1,12.0,74,0.00,CLR,,0.00,WeatherDisplay:10.37,2013-08-05 13:12:00,
2013-08-05 09:17:00,63.6,55.2,30.04,West,259,4.4,10.4,74,0.00,CLR,,0.00,WeatherDisplay:10.37,2013-08-05 13:17:00,
2013-08-05 09:22:00,64.0,57.0,30.04,NNE,24,1.8,5.8,78,0.00,CLR,,0.00,WeatherDisplay:10.37,2013-08-05 13:22:00,
2013-08-05 09:28:00,64.3,56.9,30.04,NNW,342,1.1,6.9,77,0.00,CLR,,0.00,WeatherDisplay:10.37,2013-08-05 13:28:00,
2013-08-05 09:33:00,64.7,55.5,30.04,North,350,6.6,13.0,72,0.00,CLR,,0.00,WeatherDisplay:10.37,2013-08-05 13:33:00,
2013-08-05 09:38:00,64.9,55.7,30.04,NW,313,6.3,12.7,72,0.00,CLR,,0.00,WeatherDisplay:10.37,2013-08-05 13:38:00,
2013-08-05 09:43:00,65.1,55.8,30.04,NNW,347,1.9,4.6,72,0.00,CLR,,0.00,WeatherDisplay:10.37,2013-08-05 13:43:00,
2013-08-05 09:48:00,65.2,54.8,30.04,NW,321,5.2,10.4,69,0.00,CLR,,0.00,WeatherDisplay:10.37,2013-08-05 13:48:00,
2013-08-05 09:53:00,65.3,55.7,30.04,NNW,338,4.0,11.5,71,0.00,CLR,,0.00,WeatherDisplay:10.37,2013-08-05 13:53:00,
2013-08-05 09:59:00,65.2,54.8,30.04,NNW,333,4.4,11.5,69,0.00,CLR,,0.00,WeatherDisplay:10.37,2013-08-05 13:59:00,
2013-08-05 10:04:00,65.5,56.2,30.04,NNW,329,8.9,17.0,72,0.00,FEW,,0.00,WeatherDisplay:10.37,2013-08-05 14:04:00,
2013-08-05 10:09:00,65.6,55.2,30.04,NNW,348,9.2,15.0,69,0.00,FEW,,0.00,WeatherDisplay:10.37,2013-08-05 14:09:00,
2013-08-05 10:14:00,65.9,55.8,30.04,WNW,293,5.8,11.5,70,0.00,FEW,,0.00,WeatherDisplay:10.37,2013-08-05 14:14:00,
2013-08-05 10:19:00,66.1,56.0,30.04,WNW,299,11.5,19.6,70,0.00,FEW,,0.00,WeatherDisplay:10.37,2013-08-05 14:19:00,
2013-08-05 10:24:00,66.3,55.8,30.04,NW,311,7.8,13.8,69,0.00,FEW,,0.00,WeatherDisplay:10.37,2013-08-05 14:24:00,
2013-08-05 10:29:00,66.0,53.0,30.04,NW,307,3.5,6.9,63,0.00,FEW,,0.00,WeatherDisplay:10.37,2013-08-05 14:29:00,
2013-08-05 10:34:00,66.3,55.8,30.04,NNW,346,4.6,13.8,69,0.00,FEW,,0.00,WeatherDisplay:10.37,2013-08-05 14:34:00,
2013-08-05 10:39:00,66.9,54.7,30.03,North,5,6.9,12.7,65,0.00,FEW,,0.00,WeatherDisplay:10.37,2013-08-05 14:39:00,
2013-08-05 10:45:00,67.5,55.7,30.04,NNW,340,9.0,11.5,66,0.00,FEW,,0.00,WeatherDisplay:10.37,2013-08-05 14:45:00,
2013-08-05 10:50:00,67.7,55.1,30.04,WNW,294,8.7,19.6,64,0.00,FEW,,0.00,WeatherDisplay:10.37,2013-08-05 14:50:00,
2013-08-05 10:55:00,67.2,53.7,30.04,NW,311,8.9,19.6,62,0.00,FEW,,0.00,WeatherDisplay:10.37,2013-08-05 14:55:00,
2013-08-05 11:00:00,67.3,54.7,30.04,NNW,334,4.7,11.0,64,0.00,FEW,,0.00,WeatherDisplay:10.37,2013-08-05 15:00:00,
2013-08-05 11:05:00,67.8,55.6,30.04,NW,322,7.8,16.1,65,0.00,FEW,,0.00,WeatherDisplay:10.37,2013-08-05 15:05:00,
2013-08-05 11:11:00,68.3,55.6,30.04,NNW,340,5.4,10.4,64,0.00,FEW,,0.00,WeatherDisplay:10.37,2013-08-05 15:11:00,
2013-08-05 11:16:00,68.7,56.5,30.03,West,276,6.5,12.7,65,0.00,FEW,,0.00,WeatherDisplay:10.37,2013-08-05 15:16:00,
2013-08-05 11:21:00,68.8,54.3,30.04,NNW,344,10.0,19.6,60,0.00,FEW,,0.00,WeatherDisplay:10.37,2013-08-05 15:21:00,
2013-08-05 11:27:00,68.3,55.6,30.04,WSW,257,7.0,12.7,64,0.00,FEW,,0.00,WeatherDisplay:10.37,2013-08-05 15:27:00,
2013-08-05 11:32:00,68.3,54.8,30.03,North,360,6.7,11.5,62,0.00,FEW,,0.00,WeatherDisplay:10.37,2013-08-05 15:32:00,
2013-08-05 11:37:00,68.1,55.5,30.04,NNW,329,6.5,9.2,64,0.00,FEW,,0.00,WeatherDisplay:10.37,2013-08-05 15:37:00,
2013-08-05 11:42:00,68.2,56.4,30.03,NNW,339,4.1,5.8,66,0.00,FEW,,0.00,WeatherDisplay:10.37,2013-08-05 15:42:00,
2013-08-05 11:47:00,68.4,53.0,30.03,West,275,8.3,15.0,58,0.00,FEW,,0.00,WeatherDisplay:10.37,2013-08-05 15:47:00,
2013-08-05 11:53:00,67.7,55.9,30.03,WSW,246,3.2,6.9,66,0.00,FEW,,0.00,WeatherDisplay:10.37,2013-08-05 15:53:00,
2013-08-05 11:58:00,67.9,54.8,30.03,NE,36,6.4,12.0,63,0.00,FEW,,0.00,WeatherDisplay:10.37,2013-08-05 15:58:00,
2013-08-05 12:03:00,68.5,56.7,30.03,West,261,5.0,8.0,66,0.00,FEW,,0.00,WeatherDisplay:10.37,2013-08-05 16:03:00,
2013-08-05 12:08:00,69.0,56.3,30.02,WNW,293,4.4,12.7,64,0.00,FEW,,0.00,WeatherDisplay:10.37,2013-08-05 16:08:00,
2013-08-05 12:14:00,69.7,57.4,30.02,West,269,8.0,11.5,65,0.00,FEW,,0.00,WeatherDisplay:10.37,2013-08-05 16:14:00,
2013-08-05 12:19:00,69.7,54.7,30.02,WSW,252,10.5,12.7,59,0.00,FEW,,0.00,WeatherDisplay:10.37,2013-08-05 16:19:00,
2013-08-05 12:25:00,69.9,58.0,30.02,NW,305,4.3,5.8,66,0.00,FEW,,0.00,WeatherDisplay:10.37,2013-08-05 16:25:00,
2013-08-05 12:29:00,70.5,57.3,30.02,NNW,337,9.7,13.8,63,0.00,FEW,,0.00,WeatherDisplay:10.37,2013-08-05 16:29:00,
2013-08-05 12:35:00,70.8,57.1,30.02,North,355,3.7,9.0,62,0.00,FEW,,0.00,WeatherDisplay:10.37,2013-08-05 16:35:00,
2013-08-05 12:41:00,70.8,56.7,30.02,NNW,340,8.3,12.7,61,0.00,FEW,,0.00,WeatherDisplay:10.37,2013-08-05 16:41:00,
2013-08-05 12:46:00,70.6,56.0,30.01,WNW,292,6.5,11.5,60,0.00,FEW,,0.00,WeatherDisplay:10.37,2013-08-05 16:46:00,
2013-08-05 12:52:00,70.5,57.3,30.01,North,360,4.5,11.5,63,0.00,FEW,,0.00,WeatherDisplay:10.37,2013-08-05 16:52:00,
2013-08-05 12:57:00,70.6,55.6,30.01,West,277,8.9,11.5,59,0.00,FEW,,0.00,WeatherDisplay:10.37,2013-08-05 16:57:00,
2013-08-05 13:02:00,70.9,58.5,30.01,WNW,298,3.8,9.2,65,0.00,SCT,,0.00,WeatherDisplay:10.37,2013-08-05 17:02:00,
2013-08-05 13:07:00,71.3,58.9,30.01,WNW,294,8.2,17.3,65,0.00,SCT,,0.00,WeatherDisplay:10.37,2013-08-05 17:07:00,
2013-08-05 13:12:00,71.5,55.0,30.00,NNE,22,1.7,6.9,56,0.00,SCT,,0.00,WeatherDisplay:10.37,2013-08-05 17:12:00,
2013-08-05 13:17:00,72.0,57.8,30.00,WNW,290,3.3,9.2,61,0.00,SCT,,0.00,WeatherDisplay:10.37,2013-08-05 17:17:00,
2013-08-05 13:22:00,72.3,56.7,30.00,WSW,258,4.0,9.2,58,0.00,SCT,,0.00,WeatherDisplay:10.37,2013-08-05 17:22:00,
2013-08-05 13:27:00,72.4,56.8,30.00,WNW,289,1.7,4.6,58,0.00,SCT,,0.00,WeatherDisplay:10.37,2013-08-05 17:27:00,
2013-08-05 13:32:00,72.6,59.3,30.00,WNW,302,5.2,10.4,63,0.00,SCT,,0.00,WeatherDisplay:10.37,2013-08-05 17:32:00,
2013-08-05 13:37:00,73.0,57.3,30.00,NNW,338,4.8,14.0,58,0.00,SCT,,0.00,WeatherDisplay:10.37,2013-08-05 17:37:00,
2013-08-05 13:43:00,73.2,58.9,30.00,West,271,4.1,11.5,61,0.00,SCT,,0.00,WeatherDisplay:10.37,2013-08-05 17:43:00,
2013-08-05 13:47:00,73.1,55.5,30.00,NW,313,9.7,15.0,54,0.00,SCT,,0.00,WeatherDisplay:10.37,2013-08-05 17:47:00,
2013-08-05 13:52:00,73.0,56.9,30.00,NNW,327,5.9,10.4,57,0.00,SCT,,0.00,WeatherDisplay:10.37,2013-08-05 17:52:00,
2013-08-05 13:57:00,72.9,54.2,30.00,WNW,285,11.2,13.8,52,0.00,SCT,,0.00,WeatherDisplay:10.37,2013-08-05 17:57:00,
2013-08-05 14:02:00,72.9,54.8,30.00,WSW,257,4.4,15.0,53,0.00,SCT,,0.00,WeatherDisplay:10.37,2013-08-05 18:02:00,
2013-08-05 14:08:00,73.1,54.4,29.99,NW,320,5.9,11.5,52,0.00,SCT,,0.00,WeatherDisplay:10.37,2013-08-05 18:08:00,
2013-08-05 14:13:00,73.2,56.1,29.99,WNW,296,4.9,12.7,55,0.00,SCT,,0.00,WeatherDisplay:10.37,2013-08-05 18:13:00,
2013-08-05 14:18:00,73.2,55.6,29.99,WNW,299,4.4,11.5,54,0.00,SCT,,0.00,WeatherDisplay:10.37,2013-08-05 18:18:00,
2013-08-05 14:23:00,73.6,55.9,29.99,NW,311,5.0,11.5,54,0.00,SCT,,0.00,WeatherDisplay:10.37,2013-08-05 18:23:00,
2013-08-05 14:28:00,74.0,57.3,29.99,North,360,4.6,6.0,56,0.00,SCT,,0.00,WeatherDisplay:10.37,2013-08-05 18:28:00,
2013-08-05 14:33:00,74.2,57.5,29.99,NNE,15,6.7,16.1,56,0.00,SCT,,0.00,WeatherDisplay:10.37,2013-08-05 18:33:00,
2013-08-05 14:38:00,74.2,58.0,29.99,West,280,5.7,11.5,57,0.00,SCT,,0.00,WeatherDisplay:10.37,2013-08-05 18:38:00,
2013-08-05 14:43:00,74.0,53.6,29.99,NNE,13,7.1,17.0,49,0.00,SCT,,0.00,WeatherDisplay:10.37,2013-08-05 18:43:00,
2013-08-05 14:48:00,74.1,56.9,29.99,NNE,13,4.9,7.0,55,0.00,SCT,,0.00,WeatherDisplay:10.37,2013-08-05 18:48:00,
2013-08-05 14:53:00,74.3,57.1,29.99,NW,309,2.7,6.9,55,0.00,SCT,,0.00,WeatherDisplay:10.37,2013-08-05 18:53:00,
2013-08-05 14:59:00,74.6,56.9,29.99,North,5,6.4,16.1,54,0.00,SCT,,0.00,WeatherDisplay:10.37,2013-08-05 18:59:00,
2013-08-05 15:04:00,74.8,57.0,29.99,West,269,3.5,6.9,54,0.00,SCT,,0.00,WeatherDisplay:10.37,2013-08-05 19:04:00,
2013-08-05 15:09:00,75.0,58.7,29.99,NNW,333,4.9,11.5,57,0.00,SCT,,0.00,WeatherDisplay:10.37,2013-08-05 19:09:00,
2013-08-05 15:14:00,75.3,55.9,29.98,North,5,0.9,3.5,51,0.00,SCT,,0.00,WeatherDisplay:10.37,2013-08-05 19:14:00,
2013-08-05 15:20:00,75.4,54.9,29.98,NNW,348,4.8,11.5,49,0.00,SCT,,0.00,WeatherDisplay:10.37,2013-08-05 19:20:00,
2013-08-05 15:25:00,75.5,59.2,29.98,WNW,293,2.0,9.2,57,0.00,SCT,,0.00,WeatherDisplay:10.37,2013-08-05 19:25:00,
2013-08-05 15:30:00,75.4,57.6,29.98,North,355,5.0,10.4,54,0.00,SCT,,0.00,WeatherDisplay:10.37,2013-08-05 19:30:00,
2013-08-05 15:35:00,75.7,59.4,29.98,West,275,2.6,6.9,57,0.00,SCT,,0.00,WeatherDisplay:10.37,2013-08-05 19:35:00,
2013-08-05 15:40:00,75.9,55.4,29.98,WNW,296,0.3,5.8,49,0.00,SCT,,0.00,WeatherDisplay:10.37,2013-08-05 19:40:00,
2013-08-05 15:45:00,76.0,56.6,29.98,NNE,20,7.0,13.8,51,0.00,SCT,,0.00,WeatherDisplay:10.37,2013-08-05 19:45:00,
2013-08-05 15:50:00,76.0,58.7,29.97,NW,304,1.2,2.0,55,0.00,SCT,,0.00,WeatherDisplay:10.37,2013-08-05 19:50:00,
2013-08-05 15:56:00,76.2,55.6,29.97,NE,53,6.7,6.7,49,0.00,SCT,,0.00,WeatherDisplay:10.37,2013-08-05 19:56:00,
2013-08-05 16:01:00,76.4,56.4,29.97,NW,313,1.6,1.6,50,0.00,SCT,,0.00,WeatherDisplay:10.37,2013-08-05 20:01:00,
2013-08-05 16:06:00,76.4,58.0,29.97,North,349,2.3,2.3,53,0.00,SCT,,0.00,WeatherDisplay:10.37,2013-08-05 20:06:00,
2013-08-05 16:11:00,76.4,58.0,29.97,NW,318,1.6,5.8,53,0.00,SCT,,0.00,WeatherDisplay:10.37,2013-08-05 20:11:00,
2013-08-05 16:16:00,76.4,55.8,29.98,NNW,334,5.8,11.5,49,0.00,SCT,,0.00,WeatherDisplay:10.37,2013-08-05 20:16:00,
2013-08-05 16:21:00,76.3,58.9,29.98,NW,307,1.1,7.0,55,0.00,SCT,,0.00,WeatherDisplay:10.37,2013-08-05 20:21:00,
2013-08-05 16:26:00,76.1,54.4,29.98,NNW,327,2.0,5.8,47,0.00,SCT,,0.00,WeatherDisplay:10.37,2013-08-05 20:26:00,
2013-08-05 16:32:00,76.1,55.0,29.98,WNW,303,0.0,1.2,48,0.00,SCT,,0.00,WeatherDisplay:10.37,2013-08-05 20:32:00,
2013-08-05 16:37:00,76.0,56.6,29.98,East,82,0.1,1.2,51,0.00,SCT,,0.00,WeatherDisplay:10.37,2013-08-05 20:37:00,
2013-08-05 16:42:00,76.2,59.4,29.98,NNW,347,1.7,5.8,56,0.00,SCT,,0.00,WeatherDisplay:10.37,2013-08-05 20:42:00,
2013-08-05 16:47:00,76.3,56.3,29.97,North,355,3.7,9.2,50,0.00,SCT,,0.00,WeatherDisplay:10.37,2013-08-05 20:47:00,
2013-08-05 16:52:00,76.2,55.1,29.98,NW,313,3.0,5.0,48,0.00,SCT,,0.00,WeatherDisplay:10.37,2013-08-05 20:52:00,
2013-08-05 16:58:00,76.3,58.4,29.98,WNW,300,0.6,6.0,54,0.00,SCT,,0.00,WeatherDisplay:10.37,2013-08-05 20:58:00,
2013-08-05 17:03:00,76.7,59.8,29.98,NW,312,4.8,10.4,56,0.00,SCT,,0.00,WeatherDisplay:10.37,2013-08-05 21:03:00,
2013-08-05 17:08:00,76.9,56.3,29.97,West,267,2.5,5.8,49,0.00,SCT,,0.00,WeatherDisplay:10.37,2013-08-05 21:08:00,
2013-08-05 17:13:00,76.7,56.7,29.97,North,5,1.4,6.9,50,0.00,SCT,,0.00,WeatherDisplay:10.37,2013-08-05 21:13:00,
2013-08-05 17:19:00,76.5,57.6,29.98,NNE,19,0.1,1.2,52,0.00,SCT,,0.00,WeatherDisplay:10.37,2013-08-05 21:19:00,
2013-08-05 17:24:00,76.4,56.9,29.98,North,360,4.9,11.5,51,0.00,SCT,,0.00,WeatherDisplay:10.37,2013-08-05 21:24:00,
2013-08-05 17:29:00,76.2,57.8,29.98,WNW,302,0.7,5.8,53,0.00,SCT,,0.00,WeatherDisplay:10.37,2013-08-05 21:29:00,
2013-08-05 17:34:00,76.3,59.4,29.98,West,269,0.4,3.0,56,0.00,SCT,,0.00,WeatherDisplay:10.37,2013-08-05 21:34:00,
2013-08-05 17:39:00,76.2,55.1,29.98,WNW,288,7.1,12.7,48,0.00,SCT,,0.00,WeatherDisplay:10.37,2013-08-05 21:39:00,
2013-08-05 17:44:00,75.9,55.9,29.98,WNW,288,4.1,4.6,50,0.00,SCT,,0.00,WeatherDisplay:10.37,2013-08-05 21:44:00,
2013-08-05 17:49:00,75.8,58.0,29.98,West,272,4.9,5.0,54,0.00,SCT,,0.00,WeatherDisplay:10.37,2013-08-05 21:49:00,
2013-08-05 17:55:00,75.8,55.8,29.98,West,266,2.4,6.9,50,0.00,SCT,,0.00,WeatherDisplay:10.37,2013-08-05 21:55:00,
2013-08-05 18:00:00,75.9,55.9,29.97,NW,306,1.6,4.6,50,0.00,SCT,,0.00,WeatherDisplay:10.37,2013-08-05 22:00:00,
2013-08-05 18:05:00,75.8,56.9,29.98,NNW,347,1.8,3.5,52,0.00,SCT,,0.00,WeatherDisplay:10.37,2013-08-05 22:05:00,
2013-08-05 18:10:00,75.7,55.7,29.98,West,263,5.7,10.4,50,0.00,SCT,,0.00,WeatherDisplay:10.37,2013-08-05 22:10:00,
2013-08-05 18:15:00,75.2,55.3,29.97,West,262,5.5,10.4,50,0.00,SCT,,0.00,WeatherDisplay:10.37,2013-08-05 22:15:00,
2013-08-05 18:20:00,74.6,55.3,29.98,WNW,302,1.9,6.9,51,0.00,SCT,,0.00,WeatherDisplay:10.37,2013-08-05 22:20:00,
2013-08-05 18:25:00,74.1,55.9,29.98,NNW,330,2.6,6.9,53,0.00,SCT,,0.00,WeatherDisplay:10.37,2013-08-05 22:25:00,
2013-08-05 18:31:00,73.8,56.6,29.98,West,281,3.6,5.8,55,0.00,SCT,,0.00,WeatherDisplay:10.37,2013-08-05 22:31:00,
2013-08-05 18:36:00,73.6,56.4,29.98,West,263,4.7,9.2,55,0.00,SCT,,0.00,WeatherDisplay:10.37,2013-08-05 22:36:00,
2013-08-05 18:42:00,73.5,54.8,29.98,WNW,286,3.2,5.8,52,0.00,SCT,,0.00,WeatherDisplay:10.37,2013-08-05 22:42:00,
2013-08-05 18:47:00,73.3,55.1,29.99,West,277,7.6,10.4,53,0.00,SCT,,0.00,WeatherDisplay:10.37,2013-08-05 22:47:00,
2013-08-05 18:52:00,72.9,54.8,29.99,West,281,2.0,11.5,53,0.00,SCT,,0.00,WeatherDisplay:10.37,2013-08-05 22:52:00,
2013-08-05 18:57:00,72.7,55.1,29.99,West,281,2.1,3.5,54,0.00,SCT,,0.00,WeatherDisplay:10.37,2013-08-05 22:57:00,
2013-08-05 19:02:00,72.5,55.9,29.99,West,266,4.3,9.2,56,0.00,SCT,,0.00,WeatherDisplay:10.37,2013-08-05 23:02:00,
2013-08-05 19:07:00,72.2,54.1,29.99,West,272,4.4,9.2,53,0.00,SCT,,0.00,WeatherDisplay:10.37,2013-08-05 23:07:00,
2013-08-05 19:12:00,71.9,54.3,29.99,West,259,2.9,6.0,54,0.00,SCT,,0.00,WeatherDisplay:10.37,2013-08-05 23:12:00,
2013-08-05 19:17:00,71.7,55.2,29.99,West,277,2.7,5.8,56,0.00,SCT,,0.00,WeatherDisplay:10.37,2013-08-05 23:17:00,
2013-08-05 19:22:00,71.3,53.8,30.00,WNW,292,3.5,10.4,54,0.00,SCT,,0.00,WeatherDisplay:10.37,2013-08-05 23:22:00,
2013-08-05 19:28:00,71.1,54.6,30.00,West,262,3.9,6.0,56,0.00,SCT,,0.00,WeatherDisplay:10.37,2013-08-05 23:28:00,
2013-08-05 19:33:00,70.7,55.2,30.00,WNW,298,6.1,11.5,58,0.00,SCT,,0.00,WeatherDisplay:10.37,2013-08-05 23:33:00,
2013-08-05 19:38:00,70.0,53.1,30.00,West,269,6.5,11.5,55,0.00,SCT,,0.00,WeatherDisplay:10.37,2013-08-05 23:38:00,
2013-08-05 19:43:00,69.5,52.1,30.00,West,267,5.3,10.4,54,0.00,SCT,,0.00,WeatherDisplay:10.37,2013-08-05 23:43:00,
2013-08-05 19:48:00,69.2,53.3,30.00,WNW,294,2.8,4.0,57,0.00,SCT,,0.00,WeatherDisplay:10.37,2013-08-05 23:48:00,
2013-08-05 19:53:00,68.5,52.7,30.01,WNW,290,3.3,5.8,57,0.00,SCT,,0.00,WeatherDisplay:10.37,2013-08-05 23:53:00,
2013-08-05 19:58:00,68.0,53.1,30.00,West,278,4.0,4.6,59,0.00,SCT,,0.00,WeatherDisplay:10.37,2013-08-05 23:58:00,
2013-08-05 20:03:00,67.5,51.7,30.00,West,275,0.0,3.5,57,0.00,BKN,,0.00,WeatherDisplay:10.37,2013-08-06 00:03:00,
2013-08-05 20:08:00,67.1,51.8,30.00,West,261,2.9,3.5,58,0.00,BKN,,0.00,WeatherDisplay:10.37,2013-08-06 00:08:00,
2013-08-05 20:13:00,66.7,51.9,30.00,West,264,4.8,5.8,59,0.00,BKN,,0.00,WeatherDisplay:10.37,2013-08-06 00:13:00,
2013-08-05 20:19:00,66.4,51.2,30.01,West,263,2.2,3.5,58,0.00,BKN,,0.00,WeatherDisplay:10.37,2013-08-06 00:19:00,
2013-08-05 20:24:00,66.2,51.0,30.01,West,264,1.7,3.5,58,0.00,BKN,,0.00,WeatherDisplay:10.37,2013-08-06 00:24:00,
2013-08-05 20:29:00,66.0,50.8,30.01,West,264,1.5,4.0,58,0.00,BKN,,0.00,WeatherDisplay:10.37,2013-08-06 00:29:00,
2013-08-05 20:34:00,65.9,50.7,30.02,West,264,0.2,3.5,58,0.00,BKN,,0.00,WeatherDisplay:10.37,2013-08-06 00:34:00,
2013-08-05 20:39:00,65.7,50.5,30.02,West,279,0.0,1.2,58,0.00,BKN,,0.00,WeatherDisplay:10.37,2013-08-06 00:39:00,
2013-08-05 20:44:00,65.5,50.8,30.02,West,279,2.2,3.5,59,0.00,BKN,,0.00,WeatherDisplay:10.37,2013-08-06 00:44:00,
2013-08-05 20:49:00,65.4,50.7,30.02,West,279,0.0,1.2,59,0.00,BKN,,0.00,WeatherDisplay:10.37,2013-08-06 00:49:00,
2013-08-05 20:54:00,65.2,51.0,30.02,West,279,0.0,0.0,60,0.00,BKN,,0.00,WeatherDisplay:10.37,2013-08-06 00:54:00,
2013-08-05 21:00:00,65.0,50.8,30.02,West,279,0.0,0.0,60,0.00,BKN,,0.00,WeatherDisplay:10.37,2013-08-06 01:00:00,
2013-08-05 21:05:00,64.8,51.9,30.02,West,279,0.0,0.0,63,0.00,BKN,,0.00,WeatherDisplay:10.37,2013-08-06 01:05:00,
2013-08-05 21:10:00,64.7,51.8,30.03,West,279,0.0,0.0,63,0.00,BKN,,0.00,WeatherDisplay:10.37,2013-08-06 01:10:00,
2013-08-05 21:15:00,64.6,51.3,30.03,West,279,0.0,0.0,62,0.00,BKN,,0.00,WeatherDisplay:10.37,2013-08-06 01:15:00,
2013-08-05 21:20:00,64.5,51.2,30.03,West,279,1.6,3.5,62,0.00,BKN,,0.00,WeatherDisplay:10.37,2013-08-06 01:20:00,
2013-08-05 21:25:00,64.3,51.0,30.03,West,279,0.1,0.0,62,0.00,BKN,,0.00,WeatherDisplay:10.37,2013-08-06 01:25:00,
2013-08-05 21:30:00,64.1,50.8,30.03,West,279,1.0,3.5,62,0.00,BKN,,0.00,WeatherDisplay:10.37,2013-08-06 01:30:00,
2013-08-05 21:36:00,63.8,51.4,30.03,West,279,0.0,0.0,64,0.00,BKN,,0.00,WeatherDisplay:10.37,2013-08-06 01:36:00,
2013-08-05 21:41:00,62.9,52.2,30.03,West,279,0.0,0.0,68,0.00,BKN,,0.00,WeatherDisplay:10.37,2013-08-06 01:41:00,
2013-08-05 21:47:00,62.1,51.8,30.03,NNW,345,0.0,1.2,69,0.00,BKN,,0.00,WeatherDisplay:10.37,2013-08-06 01:47:00,
2013-08-05 21:52:00,61.8,51.1,30.03,NE,34,1.1,3.5,68,0.00,BKN,,0.00,WeatherDisplay:10.37,2013-08-06 01:52:00,
2013-08-05 21:57:00,61.7,51.8,30.03,NW,306,0.0,0.0,70,0.00,BKN,,0.00,WeatherDisplay:10.37,2013-08-06 01:57:00,
2013-08-05 22:02:00,61.4,51.9,30.03,NW,311,0.0,0.0,71,0.00,BKN,,0.00,WeatherDisplay:10.37,2013-08-06 02:02:00,
2013-08-05 22:07:00,61.2,51.7,30.03,NE,42,0.0,0.0,71,0.00,BKN,,0.00,WeatherDisplay:10.37,2013-08-06 02:07:00,
2013-08-05 22:12:00,61.4,51.9,30.03,NE,42,0.0,0.0,71,0.00,BKN,,0.00,WeatherDisplay:10.37,2013-08-06 02:12:00,
2013-08-05 22:17:00,61.7,51.8,30.03,NE,42,0.0,0.0,70,0.00,BKN,,0.00,WeatherDisplay:10.37,2013-08-06 02:17:00,
2013-08-05 22:22:00,61.8,51.5,30.03,NNW,348,1.2,1.2,69,0.00,BKN,,0.00,WeatherDisplay:10.37,2013-08-06 02:22:00,
2013-08-05 22:27:00,62.0,51.3,30.03,NW,314,0.0,0.0,68,0.00,BKN,,0.00,WeatherDisplay:10.37,2013-08-06 02:27:00,
2013-08-05 22:32:00,62.0,51.3,30.03,NNW,344,1.0,3.5,68,0.00,BKN,,0.00,WeatherDisplay:10.37,2013-08-06 02:32:00,
2013-08-05 22:37:00,61.9,51.2,30.03,NW,317,2.1,3.5,68,0.00,BKN,,0.00,WeatherDisplay:10.37,2013-08-06 02:37:00,
2013-08-05 22:42:00,61.9,51.2,30.03,NW,326,0.0,0.0,68,0.00,BKN,,0.00,WeatherDisplay:10.37,2013-08-06 02:42:00,
2013-08-05 22:48:00,61.9,51.6,30.03,NW,326,0.0,0.0,69,0.00,BKN,,0.00,WeatherDisplay:10.37,2013-08-06 02:48:00,
2013-08-05 22:53:00,61.6,52.1,30.03,North,5,1.3,4.6,71,0.00,BKN,,0.00,WeatherDisplay:10.37,2013-08-06 02:53:00,
2013-08-05 22:58:00,61.3,52.2,30.03,NNW,331,0.2,2.3,72,0.00,BKN,,0.00,WeatherDisplay:10.37,2013-08-06 02:58:00,
2013-08-05 23:03:00,60.8,51.3,30.03,NNW,328,0.0,1.2,71,0.00,BKN,,0.00,WeatherDisplay:10.37,2013-08-06 03:03:00,
2013-08-05 23:08:00,60.6,51.5,30.03,NW,323,0.0,1.2,72,0.00,BKN,,0.00,WeatherDisplay:10.37,2013-08-06 03:08:00,
2013-08-05 23:13:00,60.5,51.8,30.03,NNW,331,2.2,3.5,73,0.00,BKN,,0.00,WeatherDisplay:10.37,2013-08-06 03:13:00,
2013-08-05 23:18:00,60.4,52.1,30.04,NNW,331,0.7,2.3,74,0.00,BKN,,0.00,WeatherDisplay:10.37,2013-08-06 03:18:00,
2013-08-05 23:23:00,60.2,51.5,30.03,NNW,330,0.8,3.5,73,0.00,BKN,,0.00,WeatherDisplay:10.37,2013-08-06 03:23:00,
2013-08-05 23:28:00,60.0,50.9,30.03,NNW,330,1.6,2.3,72,0.00,BKN,,0.00,WeatherDisplay:10.37,2013-08-06 03:28:00,
2013-08-05 23:33:00,60.0,50.9,30.04,NNW,329,1.4,3.5,72,0.00,BKN,,0.00,WeatherDisplay:10.37,2013-08-06 03:33:00,
2013-08-05 23:38:00,60.0,50.9,30.03,NNW,329,0.0,1.0,72,0.00,BKN,,0.00,WeatherDisplay:10.37,2013-08-06 03:38:00,
2013-08-05 23:44:00,60.1,51.0,30.04,NNW,329,0.2,1.2,72,0.00,BKN,,0.00,WeatherDisplay:10.37,2013-08-06 03:44:00,
2013-08-05 23:49:00,60.1,51.0,30.04,NNW,329,1.0,2.3,72,0.00,BKN,,0.00,WeatherDisplay:10.37,2013-08-06 03:49:00,
2013-08-05 23:54:00,60.1,51.0,30.04,NNW,329,0.1,1.2,72,0.00,BKN,,0.00,WeatherDisplay:10.37,2013-08-06 03:54:00,
2013-08-05 23:59:00,60.0,51.3,30.04,NNW,329,0.0,2.3,73,0.00,BKN,,0.00,WeatherDisplay:10.37,2013-08-06 03:59:00,